[[{"header":{"parameterUnit":"m.s-1","parameterCategory":1,"la1":30.2991,"la2":30.254,"lo1":-89.0895,"lo2":-89.0444,"dy":0.0017,"dx":0.0017,"nx":28,"ny":28,"refTime":"2024-03-08T09:00:00:Z","depth":0,"parameterNumber":2,"parameterNumberName":"U-component_of_WINDS"},"data":[0,0,0,0,0,0,0,0,0,0,0,0,0,0,0,0,0,0,0,0,0,0,0,0,0,0,0,0,0,0,0,0,0,0,0,0,0,0,0,0,0,0,0,0,0,0,0,0,0,0,0,0,0,0,0,0,0,0,-3.3311,-3.3312,0,-3.3412,-3.3413,-3.3415,-3.34,-3.3399,-3.3397,-3.3395,-3.3495,-3.35,-3.3504,0,0,0,0,0,0,0,0,0,0,0,0,0,-3.31,-3.3104,-3.3311,-3.3312,-3.3313,-3.3412,-3.3413,-3.3415,-3.3401,-3.3398,-3.3396,-3.3395,-3.3494,-3.3499,-3.3504,0,0,0,0,0,0,0,0,0,0,0,0,0,-3.3195,-3.3105,-3.3311,-3.3318,-3.332,-3.3412,-3.3413,-3.3415,-3.3401,-3.3398,-3.3396,-3.3394,-3.3492,-3.3499,-3.3505,-3.3594,0,0,-3.3524,-3.3527,0,0,0,0,0,0,0,0,-3.319,-3.3203,-3.3316,-3.3318,-3.332,-3.3391,-3.3376,-3.3475,-3.3402,-3.337,-3.3395,-3.3392,-3.3463,-3.3471,-3.3496,-3.3599,-3.3603,-3.3525,-3.3529,-3.3531,-3.3533,0,0,0,0,0,0,0,-3.3183,-3.3199,-3.3351,-3.3318,-3.332,-3.3315,-3.3326,-3.3395,-3.3429,-3.3373,-3.3372,-3.3384,-3.3463,-3.349,-3.3498,-3.3605,-3.3525,-3.353,-3.3534,-3.3537,-3.3783,-3.3786,0,0,0,0,0,0,-3.3175,-3.3193,-3.3348,-3.3354,-3.3248,-3.3321,-3.3333,-3.3371,-3.3428,-3.3435,-3.3386,-3.3383,-3.348,-3.349,-3.3501,-3.3607,-3.3531,-3.3537,-3.3541,-3.378,-3.3784,-3.3787,0,0,0,0,0,0,-3.3171,-3.3189,-3.3344,-3.3273,-3.3293,-3.3327,-3.337,-3.3374,-3.34,-3.3439,-3.3444,-3.3407,-3.3478,-3.3492,-3.3571,-3.361,-3.354,-3.3546,-3.3777,-3.3781,-3.3785,-3.3821,0,0,0,0,0,0,-3.3165,-3.3188,-3.3224,-3.3274,-3.3297,-3.3413,-3.3372,-3.3378,-3.3412,-3.3409,-3.346,-3.3466,-3.3477,-3.3561,-3.3577,-3.3618,-3.3551,-3.3774,-3.3779,-3.3784,-3.3817,-3.3826,-3.3834,0,0,0,0,0,-3.3157,-3.323,-3.3225,-3.3244,-3.3342,-3.3415,-3.3428,-3.3441,-3.3415,-3.345,-3.3474,-3.3464,-3.3604,-3.357,-3.3587,-3.363,-3.3771,-3.3777,-3.3783,-3.3813,-3.3824,-3.3834,0,0,0,0,0,0,-3.3182,-3.3237,-3.3232,-3.3324,-3.3365,-3.3413,-3.3458,-3.3453,-3.3502,-3.3497,-3.351,-3.3521,-3.36,-3.3623,-3.3584,-3.3718,-3.3684,-3.3694,-3.37,-3.3711,-3.372,-3.3712,-3.3556,0,0,0,0,0,-3.3198,-3.3254,-3.3299,-3.3375,-3.3396,-3.3423,-3.3456,-3.3462,-3.3505,-3.3522,-3.3552,-3.3593,-3.3645,-3.368,-3.3731,-3.382,-3.3829,-3.3859,-3.3867,-3.3874,-3.3882,-3.3928,-3.394,-3.3807,-3.3807,-3.3807,0,0,-3.3231,-3.3268,-3.3303,-3.3381,-3.3413,-3.3469,-3.3438,-3.3499,-3.354,-3.3531,-3.3606,-3.363,-3.3676,-3.3759,-3.3797,-3.3781,-3.3921,-3.3882,-3.3888,-3.3892,-3.3935,-3.3948,-3.3959,-3.3811,-3.381,-3.3809,0,0,-3.3321,-3.3356,-3.3422,-3.3455,-3.3505,-3.3523,-3.3538,-3.3587,-3.3602,-3.3678,-3.3671,-3.3719,-3.3811,-3.3843,-3.3872,-3.3971,-3.3962,-3.3987,-3.4032,-3.4077,-3.4087,-3.4096,-3.4129,-3.414,-3.3995,-3.3996,-3.3996,0,-3.3356,-3.3441,-3.3456,-3.3517,-3.355,-3.3545,-3.361,-3.3641,-3.3705,-3.3727,-3.3708,-3.3821,-3.3852,-3.3941,-3.3965,-3.399,-3.4005,-3.3981,-3.4085,-3.4094,-3.4103,-3.4134,-3.4146,-3.3998,-3.3998,-3.3997,-3.3997,0,-3.348,-3.354,-3.3586,-3.3648,-3.3687,-3.375,-3.3771,-3.3808,-3.3811,-3.3829,-3.3905,-3.3942,-3.3999,-3.4021,-3.4024,-3.411,-3.4098,-3.4082,-3.4047,-3.4118,-3.4147,-3.4159,-3.4002,-3.4001,-3.4,-3.3999,0,0,-3.3587,-3.3656,-3.3672,-3.3699,-3.3754,-3.3799,-3.386,-3.3917,-3.3946,-3.399,-3.404,-3.4117,-3.4102,-3.4134,-3.4141,-3.418,-3.4252,-3.4159,-3.416,-3.4172,-3.4344,-3.4354,-3.4368,-3.4247,-3.425,-3.4252,-3.4339,0,-3.3679,-3.379,-3.3803,-3.39,-3.3953,-3.3949,-3.4002,-3.4039,-3.4058,-3.4104,-3.4125,-3.4178,-3.4156,-3.4174,-3.4213,-3.4235,-3.4286,-3.4229,-3.4291,-3.4293,-3.4277,-3.4384,-3.4395,-3.4476,-3.4351,-3.4353,-3.4355,0,-3.3802,-3.3849,-3.3952,-3.3996,-3.4019,-3.4067,-3.4118,-3.4163,-3.4205,-3.4215,-3.4251,-3.4252,-3.4312,-3.4277,-3.4359,-3.432,-3.4346,-3.436,-3.4363,-3.4368,-3.4326,-3.4388,-3.4503,-3.4514,-3.4373,-3.4372,-3.4371,0,-3.3866,-3.3955,-3.4027,-3.4051,-3.4106,-3.4139,-3.4163,-3.4202,-3.4234,-3.4279,-3.4299,-3.435,-3.4377,-3.4415,-3.4428,-3.4402,-3.4509,-3.4475,-3.4517,-3.4516,-3.4538,-3.4536,-3.4655,-3.4559,-3.4559,-3.4559,-3.4559,0,-3.3966,-3.4028,-3.4056,-3.4101,-3.4169,-3.4183,-3.425,-3.4272,-3.4307,-3.4353,-3.4353,-3.4396,-3.4412,-3.4457,-3.4469,-3.4533,-3.4546,-3.4554,-3.4556,-3.4553,-3.4551,-3.4568,-3.4562,-3.4562,-3.4561,-3.4561,-3.456,0,-3.4048,-3.407,-3.4148,-3.4193,-3.4206,-3.4254,-3.4292,-3.4333,-3.4351,-3.4409,-3.4424,-3.4451,-3.4504,-3.4522,-3.4586,-3.4593,-3.4667,-3.4666,-3.4653,-3.4653,-3.4693,-3.4688,-3.4825,-3.4843,-3.4737,-3.4738,-3.4739,0,-3.4109,-3.4157,-3.4207,-3.4239,-3.4264,-3.4315,-3.4348,-3.4363,-3.4397,-3.4446,-3.4481,-3.4533,-3.4576,-3.466,-3.4685,-3.4733,-3.473,-3.4775,-3.4737,-3.4732,-3.4727,-3.4723,-3.4726,-3.4781,-3.4783,-3.4783,-3.4784,0,-3.4214,-3.4222,-3.4271,-3.4322,-3.4361,-3.4402,-3.4441,-3.4466,-3.4487,-3.4524,-3.4579,-3.4612,-3.4677,-3.4728,-3.4777,-3.4799,-3.4794,-3.4796,-3.4808,-3.4804,-3.4794,-3.4796,-3.467,-3.4792,-3.4792,-3.4791,-3.4791,-3.479,-3.4286,-3.4327,-3.4368,-3.4421,-3.4452,-3.4488,-3.4528,-3.4551,-3.4598,-3.4652,-3.4658,-3.4716,-3.4753,-3.4818,-3.4843,-3.4886,-3.4874,-3.4891,-3.4895,-3.4899,-3.49,-3.4789,-3.4896,-3.4895,-3.4895,-3.4895,-3.4895,0,-3.4388,-3.4414,-3.4463,-3.4518,-3.4558,-3.4552,-3.4595,-3.4628,-3.468,-3.4716,-3.4758,-3.4819,-3.4868,-3.4896,-3.4944,-3.4973,-3.4972,-3.4985,-3.4982,-3.4986,-3.4911,-3.4894,-3.4985,-3.4985,-3.4985,-3.4985,-3.4985,-3.4985,-3.4446,-3.4514,-3.4527,-3.4609,-3.4634,-3.4692,-3.4716,-3.4748,-3.4777,-3.4846,-3.4887,-3.4905,-3.4937,-3.4987,-3.5031,-3.5038,-3.5054,-3.5068,-3.5073,-3.5001,-3.4992,-3.4983,-3.4968,-3.5072,-3.5072,-3.5145,-3.5145,-3.5146]},{"header":{"parameterUnit":"m.s-1","parameterCategory":1,"la1":30.2991,"la2":30.254,"lo1":-89.0895,"lo2":-89.0444,"dy":0.0017,"dx":0.0017,"nx":28,"ny":28,"refTime":"2024-03-08T09:00:00:Z","depth":0,"parameterNumber":3,"parameterNumberName":"V-component_of_WINDS"},"data":[0,0,0,0,0,0,0,0,0,0,0,0,0,0,0,0,0,0,0,0,0,0,0,0,0,0,0,0,0,0,0,0,0,0,0,0,0,0,0,0,0,0,0,0,0,0,0,0,0,0,0,0,0,0,0,0,0,0,4.786,4.7859,0,4.7749,4.7747,4.7746,4.771,4.7711,4.7711,4.7712,4.7587,4.7583,4.758,0,0,0,0,0,0,0,0,0,0,0,0,0,4.8035,4.8032,4.786,4.7859,4.7857,4.7749,4.7747,4.7746,4.771,4.7711,4.7711,4.7712,4.7588,4.7584,4.7579,0,0,0,0,0,0,0,0,0,0,0,0,0,4.7944,4.8031,4.786,4.7827,4.7823,4.7749,4.7747,4.7745,4.771,4.7711,4.7712,4.7712,4.759,4.7584,4.7579,4.7527,0,0,4.7561,4.7559,0,0,0,0,0,0,0,0,4.795,4.7938,4.7833,4.7829,4.7824,4.7744,4.7763,4.7672,4.771,4.7752,4.7712,4.7713,4.7638,4.7628,4.7605,4.7521,4.7516,4.7561,4.7557,4.7555,4.7553,0,0,0,0,0,0,0,4.7956,4.7943,4.7816,4.7832,4.7826,4.7815,4.7803,4.7746,4.7692,4.7749,4.7746,4.7734,4.7636,4.7611,4.7602,4.7514,4.7561,4.7556,4.7552,4.755,4.7385,4.7384,0,0,0,0,0,0,4.7969,4.7948,4.7819,4.7812,4.7891,4.7811,4.7798,4.7769,4.7692,4.7682,4.7733,4.7733,4.762,4.7609,4.7598,4.7534,4.7555,4.7549,4.7546,4.7386,4.7385,4.7384,0,0,0,0,0,0,4.7973,4.7958,4.7824,4.788,4.7862,4.7807,4.7775,4.7766,4.7742,4.7681,4.767,4.7718,4.7621,4.7606,4.7546,4.7529,4.7547,4.7542,4.7387,4.7385,4.7384,4.7406,0,0,0,0,0,0,4.7978,4.796,4.7941,4.788,4.7859,4.7777,4.7774,4.7764,4.7733,4.7731,4.7664,4.7653,4.762,4.7555,4.7541,4.7522,4.7537,4.7388,4.7386,4.7384,4.7407,4.7406,4.7405,0,0,0,0,0,4.7985,4.7949,4.794,4.7925,4.7835,4.7776,4.7763,4.7729,4.7732,4.7712,4.7673,4.7656,4.7534,4.7549,4.7533,4.7512,4.7389,4.7387,4.7385,4.7407,4.7406,4.7405,0,0,0,0,0,0,4.8005,4.794,4.793,4.7874,4.7831,4.777,4.7743,4.7728,4.7681,4.768,4.7636,4.7621,4.7566,4.7532,4.7551,4.7459,4.746,4.7455,4.7483,4.7482,4.7481,4.749,4.7532,0,0,0,0,0,4.8004,4.7964,4.7908,4.7864,4.7843,4.7798,4.777,4.7748,4.77,4.7681,4.7638,4.759,4.7541,4.7509,4.7461,4.7402,4.7387,4.738,4.7379,4.7378,4.7374,4.7342,4.7339,4.7376,4.7377,4.7377,0,0,4.7999,4.7959,4.7935,4.7867,4.7831,4.7789,4.7782,4.7737,4.7705,4.7673,4.7616,4.7583,4.7526,4.7468,4.744,4.7438,4.7361,4.7376,4.7376,4.7371,4.734,4.7336,4.7333,4.7375,4.7375,4.7376,0,0,4.797,4.7936,4.7896,4.7862,4.781,4.778,4.7771,4.7713,4.7691,4.7634,4.761,4.757,4.7486,4.7448,4.7418,4.7378,4.7361,4.7363,4.7358,4.7328,4.7325,4.7322,4.7309,4.7305,4.7359,4.7359,4.7359,0,4.797,4.7909,4.7877,4.7835,4.7806,4.778,4.7739,4.7706,4.7639,4.7618,4.7619,4.7516,4.7476,4.741,4.7401,4.7376,4.7364,4.737,4.7329,4.7326,4.7322,4.7309,4.7305,4.736,4.736,4.736,4.736,0,4.7912,4.787,4.7844,4.7786,4.7753,4.7712,4.7672,4.7643,4.7624,4.7594,4.7537,4.7488,4.7431,4.7413,4.7392,4.7344,4.7346,4.7338,4.7338,4.732,4.7307,4.7302,4.7361,4.7361,4.7361,4.736,0,0,4.7891,4.7819,4.781,4.7784,4.7727,4.7692,4.7649,4.7598,4.7574,4.7529,4.7492,4.7424,4.7418,4.7383,4.7358,4.7331,4.7306,4.7327,4.7325,4.7326,4.7251,4.7258,4.7253,4.7294,4.7293,4.7292,4.7257,0,4.7855,4.7782,4.7754,4.7693,4.7654,4.763,4.7593,4.7553,4.7524,4.7485,4.7451,4.7405,4.74,4.7379,4.7352,4.7315,4.729,4.7317,4.7258,4.7256,4.7273,4.7246,4.7252,4.7221,4.7251,4.725,4.725,0,4.7803,4.7764,4.7701,4.7651,4.7633,4.7601,4.7553,4.7516,4.747,4.745,4.7415,4.7392,4.7345,4.7349,4.7284,4.7303,4.7277,4.7255,4.7253,4.7246,4.7252,4.7239,4.7209,4.7205,4.7241,4.7242,4.7242,0,4.7796,4.7726,4.768,4.7659,4.7599,4.7577,4.755,4.7505,4.7477,4.7434,4.7415,4.7365,4.7338,4.7299,4.7263,4.7269,4.7201,4.7202,4.7183,4.7184,4.7169,4.7171,4.7136,4.7152,4.7152,4.7152,4.7153,0,4.7759,4.7722,4.7677,4.7648,4.7606,4.7573,4.7531,4.7502,4.7463,4.7428,4.7402,4.7369,4.7323,4.7284,4.7255,4.7206,4.7193,4.7175,4.7168,4.7178,4.718,4.716,4.7161,4.7151,4.7151,4.7152,4.7152,0,4.7743,4.7712,4.7661,4.761,4.7597,4.7568,4.7523,4.7494,4.7465,4.7421,4.7408,4.7362,4.7315,4.7276,4.7212,4.7192,4.7142,4.7133,4.7159,4.7155,4.7139,4.7141,4.709,4.7082,4.7104,4.7103,4.7103,0,4.7723,4.7694,4.7642,4.7619,4.7594,4.7556,4.7528,4.7495,4.7466,4.7414,4.7391,4.7343,4.7302,4.7227,4.7186,4.7138,4.7128,4.7113,4.712,4.7132,4.7128,4.7131,4.7128,4.7112,4.7112,4.7112,4.7112,0,4.7689,4.7676,4.7639,4.7598,4.7567,4.7531,4.7494,4.7476,4.7435,4.7404,4.7358,4.7327,4.7265,4.7217,4.7165,4.7135,4.7116,4.7111,4.7104,4.7114,4.7131,4.7122,4.7158,4.7112,4.7112,4.7112,4.7112,4.7112,4.7671,4.7645,4.7606,4.7566,4.7537,4.7504,4.7475,4.7445,4.7407,4.7357,4.7338,4.7291,4.7246,4.7176,4.7146,4.7107,4.7104,4.7094,4.7092,4.709,4.7092,4.7138,4.7097,4.7097,4.7097,4.7097,4.7096,0,4.7637,4.7612,4.7576,4.7528,4.7497,4.7487,4.7447,4.742,4.738,4.7342,4.7305,4.7252,4.7206,4.7164,4.7115,4.7092,4.7083,4.7081,4.7082,4.7076,4.7096,4.7107,4.709,4.709,4.709,4.709,4.709,4.709,4.7616,4.7574,4.7556,4.7499,4.7472,4.7429,4.7407,4.7377,4.7347,4.729,4.7254,4.7228,4.7188,4.7137,4.7095,4.7083,4.7066,4.7067,4.7053,4.7073,4.7074,4.7075,4.7085,4.7064,4.7063,4.7036,4.7036,4.7036]}]]